Location: Peach Mountain Observatory
(42.3967°N, 83.9367°W)
Time: 22:44:47
(UTC-05:00)

Explorer 11/Cluster Stage 4 - All Passes

Search period start: 27 January 2020 00:00
Search period end: 06 February 2020 00:00
Orbit: 467 x 1259 km, 28.8° (Epoch: 27 January)

Date Brightness Start Highest point End Pass type
(mag) Time Alt. Az. Time Alt. Az. Time Alt. Az.
27 Jan - 11:37:04 10° SSE 11:38:01 10° SSE 11:38:59 10° SE daylight
27 Jan - 13:19:58 10° SSW 13:26:00 23° SSE 13:32:00 10° ESE daylight
27 Jan - 15:07:31 10° SW 15:14:23 30° S 15:20:49 10° ESE daylight
27 Jan - 16:56:34 10° WSW 17:02:40 24° SSW 17:08:11 10° SE daylight
27 Jan - 18:48:19 10° SW 18:50:24 11° SSW 18:52:23 10° SSW visible
28 Jan - 11:24:25 10° S 11:26:58 12° SSE 11:29:35 10° SE daylight
28 Jan - 13:08:46 10° SW 13:14:58 24° SSE 13:21:13 10° ESE daylight
28 Jan - 14:56:28 10° WSW 15:03:22 30° S 15:09:58 10° ESE daylight
28 Jan - 16:45:35 10° WSW 16:51:40 24° SSW 16:57:15 10° SSE daylight
28 Jan - 18:38:18 10° SW 18:39:24 10° SSW 18:40:29 10° SSW visible
29 Jan - 11:12:37 10° S 11:15:55 13° SSE 11:19:20 10° SE daylight
29 Jan - 12:57:39 10° SW 13:03:56 26° SSE 13:10:23 10° ESE daylight
29 Jan - 14:45:26 10° WSW 14:52:21 30° S 14:59:03 10° SE daylight
29 Jan - 16:34:40 10° WSW 16:40:39 23° SSW 16:46:15 10° SSE daylight
30 Jan - 11:01:07 10° S 11:04:53 14° SSE 11:08:51 10° ESE daylight
30 Jan - 12:46:36 10° SW 12:52:54 27° SSE 12:59:28 10° ESE daylight
30 Jan - 14:34:28 10° WSW 14:41:20 30° S 14:48:07 10° SE daylight
30 Jan - 16:23:47 10° WSW 16:29:37 22° SSW 16:35:10 10° SSE daylight
31 Jan - 10:49:48 10° S 10:53:51 16° SSE 10:58:11 10° ESE daylight
31 Jan - 12:35:36 10° SW 12:41:53 28° S 12:48:32 10° ESE daylight
31 Jan - 14:23:32 10° WSW 14:30:18 30° S 14:37:06 10° SE daylight
31 Jan - 16:12:58 10° WSW 16:18:35 20° SSW 16:24:00 10° SSE daylight
01 Feb - 10:38:37 10° SSW 10:42:51 17° SSE 10:47:25 10° ESE daylight
01 Feb - 12:24:41 10° SW 12:30:52 28° S 12:37:33 10° ESE daylight
01 Feb - 14:12:40 10° WSW 14:19:17 29° S 14:26:03 10° SE daylight
01 Feb - 16:02:14 10° WSW 16:07:32 19° SSW 16:12:44 10° SSE daylight
02 Feb - 10:27:32 10° SSW 10:31:51 18° SSE 10:36:35 10° ESE daylight
02 Feb - 12:13:48 10° SW 12:19:52 28° S 12:26:31 10° ESE daylight
02 Feb - 14:01:50 10° WSW 14:08:15 28° S 14:14:56 10° SE daylight
02 Feb - 15:51:36 10° WSW 15:56:29 17° SSW 16:01:21 10° SSE daylight
03 Feb - 10:16:32 10° SSW 10:20:52 18° SSE 10:25:40 10° ESE daylight
03 Feb - 12:02:58 10° SW 12:08:53 28° S 12:15:27 10° ESE daylight
03 Feb - 13:51:04 10° WSW 13:57:15 26° S 14:03:46 10° SE daylight
03 Feb - 15:41:05 10° WSW 15:45:27 15° SSW 15:49:50 10° S daylight
04 Feb - 10:05:38 10° SSW 10:09:55 19° SSE 10:14:44 10° ESE daylight
04 Feb - 11:52:12 10° SW 11:57:55 28° S 12:04:21 10° ESE daylight
04 Feb - 13:40:21 10° WSW 13:46:14 25° SSW 13:52:32 10° SE daylight
04 Feb - 15:30:46 10° SW 15:34:25 14° SSW 15:38:06 10° S daylight
05 Feb - 09:54:46 10° SSW 09:58:59 19° SSE 10:03:46 10° ESE daylight
05 Feb - 11:41:28 10° SW 11:46:58 27° S 11:53:13 10° SE daylight
05 Feb - 13:29:43 10° WSW 13:35:14 23° SSW 13:41:14 10° SE daylight
05 Feb - 15:20:48 10° SW 15:23:23 12° SSW 15:25:59 10° S daylight
